Weather Roundup
Issued by NWS Chicago, IL

Home | Current Version | Previous Version | Text Only | Print | Product List | Glossary Off
Versions: 1 2 3 4 5 6 7 8 9 10 11 12 13 14 15 16 17 18 19 20 21 22 23 24 25 26 27 28 29 30 31 32 33 34 35 36 37 38 39 40 41 42 43 44 45 46 47 48 49 50

000
NZUS59 KLOT 300308
HRRLOT

CHICAGO AREA WEATHER ROUNDUP
NATIONAL WEATHER SERVICE CHICAGO/ROMEOVILLE IL
1000 PM CDT SAT APR 29 2017

NOTE: "FAIR" INDICATES FEW OR NO CLOUDS BELOW 12,000 FEET WITH NO
SIGNIFICANT WEATHER AND/OR OBSTRUCTIONS TO VISIBILITY.

* THESE STATIONS ARE NOT UNDER NWS QUALITY CONTROL. THEY ALSO MAY NOT
  REPORT WEATHER SUCH AS PRECIPITATION OR FOG.

ILZ005-006-012>014-019>023-300400-
NORTHEAST ILLINOIS

CITY           SKY/WX    TMP DP  RH WIND       PRES   REMARKS
OHARE          HVY RAIN  44  42  93 NE24G35   29.98F FOG
MIDWAY         LGT RAIN  46  44  93 NE29G38   30.00R FOG
AURORA         RAIN      46  43  89 E18G39    29.98R FOG
LANSING*       LGT RAIN  46  46 100 E6G23     30.00R
JOLIET*        LGT RAIN  46  46  97 NE18G25   29.99R
WAUKEGAN       LGT RAIN  42  42 100 NE18G36   29.99F
DUPAGE AIRPORT HVY RAIN  44  44 100 E29G43    29.96R FOG
WHEELING       RAIN      43  43 100 NE21G36   30.00F FOG
MORRIS*        LGT RAIN  45  44  94 E16G24    29.96F
LEWIS AIRPORT* RAIN      45  45 100 NE15G24   30.00R
NORTHERLY ISL    N/A     44  43  96 W25         N/A
$$

WIZ051-052-058>065-066-070>072-300400-
SOUTHEAST WISCONSIN

CITY           SKY/WX    TMP DP  RH WIND       PRES   REMARKS
MILWAUKEE      LGT RAIN  41  39  93 NE23G32   30.08F
KENOSHA*       LGT RAIN  42  39  89 NE23G31   30.02F
RACINE*        LGT RAIN  41  38  89 NE23G32   30.06F
WEST BEND      LGT RAIN  37  36  93 NE16G33   30.11F
$$

INZ001>003-010>013-019-020-300400-
NORTHWEST INDIANA

CITY           SKY/WX    TMP DP  RH WIND       PRES   REMARKS
GARY*          LGT RAIN  46  46 100 NE25G52   29.93F
MICHIGAN CITY* NOT AVBL
RENSSELAER*    NOT AVBL
VALPARAISO     LGT RAIN  49  46  90 E26G38    29.94R FOG
$$

LMZ740>746-300400-
SOUTHERN LAKE MICHIGAN

STATION/POSITION TIME  SKY/WX   TEMP WIND        PRES    VSBY
                                AIR  DIR/SP/G
                 (UTC)          (F)  (DEG/KT/KT) (MB)    (MI)
HARRISON CRIB    0230            44   40/ 37/ 40   N/A
BURNHAM HARBOR   0300            44   10/ 12/ 33   N/A
CALUMET HARBOR   0248            45   10/ 12/ 23 1015.0R
BURNS HARBOR     0240            48   70/ 26/ 34 1013.2F
MICHIGAN CITY    0240            47   60/ 30/ 36   N/A
$$

ABBREVIATIONS USED IN REMARKS
   TC - TEMPERATURE IN CELSIUS
  WCI - WIND CHILL INDEX
   HX - HEAT INDEX
  VSB - VISIBILITY
$$




USA.gov is the U.S. government's official web portal to all federal, state and local government web resources and services.